Location: Kellogg
(38.0159°N, 90.0546°W)
Time: 21:54:45
(UTC+00:00)

Transit 4A - Pass Details

Date: 19 September 2024
Orbit: 864 x 978 km, 66.8° (Epoch: 12 October)

Event Time Altitude Azimuth Distance (km) Brightness Sun altitude
Rises 06:56:59 0° 184° (S) 3,433 - -48.1°
Reaches altitude 10° 06:59:34 10° 177° (S) 2,506 - -47.9°
Maximum altitude 07:04:54 39° 110° (ESE) 1,288 - -47.5°
Exits shadow 07:09:56 12° 45° (NE) 2,427 10.6 -47.0°
Drops below altitude 10° 07:10:22 10° 43° (NE) 2,571 10.7 -47.0°
Sets 07:13:02 0° 36° (NE) 3,533 11.6 -46.7°
